Regional Weather Roundup
Issued by NWS Charleston, SC

Current Version | Previous Version | Graphics & Text | Print | Product List | Glossary On
Versions: 1 2 3 4 5 6 7 8 9 10 11 12 13 14 15 16 17 18 19 20 21 22 23 24 25 26 27 28 29 30 31 32 33 34 35 36 37 38 39 40 41 42 43 44 45 46 47 48 49 50
000
ASUS42 KCHS 011910
RWRCHS

REGIONAL WEATHER ROUNDUP
NATIONAL WEATHER SERVICE CHARLESTON SC
300 PM EDT WED OCT 01 2014

NOTE: "FAIR" INDICATES FEW OR NO CLOUDS BELOW 12,000 FEET WITH NO
SIGNIFICANT WEATHER AND/OR OBSTRUCTIONS TO VISIBILITY.

NOT ALL STATIONS ARE QUALITY CONTROLLED BY THE NATIONAL
WEATHER SERVICE. USE DATA WITH CAUTION...ESPECIALLY
DEWPOINT OBSERVATIONS.

SCZ027-030-031-034>040-042>050-012000-
...SOUTH CAROLINA...

CITY           SKY/WX    TMP DP  RH WIND       PRES   REMARKS
N CHARLESTON   MOSUNNY   85  61  44 E6        29.97F
WATERFRONT PRK   N/A     77 N/A N/A SE10        N/A
FORT JOHNSON   NOT AVBL
MOUNT PLEASANT FAIR      81  70  69 E6        29.97S
JOHNS ISLAND   CLEAR     81  77  89 E7        29.98R
PINOPOLIS        N/A     82  66  57 N3        29.92F
MONCKS CORNER  FAIR      82  70  65 CALM      29.97F
SUMMERVILLE    FAIR      82  63  51 N6        29.98S
BEAUFORT MCAS  MOSUNNY   84  62  47 VRB3      29.97F
BEAUFORT ARPT  FAIR      82  66  57 E5        29.97S
HILTON HEAD IS MOSUNNY   81  68  65 E5        29.99S
GEORGETOWN     NOT AVBL
WALTERBORO     PTCLDY    82  55  39 CALM      29.98S
ORANGEBURG     PTSUNNY   84  60  44 S5        29.97F
BARNWELL       FAIR      84  63  48 SE3       29.98F
AIKEN          FAIR      82  63  51 CALM      30.01S
MANNING        FAIR      82  64  54 CALM      29.97F
KINGSTREE      NOT AVBL
COLUMBIA       MOSUNNY   87  54  32 CALM      29.96F
SUMTER         MOSUNNY   82  61  48 E5        29.96F
FLORENCE       MOSUNNY   82  62  50 VRB3      29.97F
MYRTLE BEACH   MOSUNNY   79  64  61 SE8       29.97F
N MYRTLE BEACH SUNNY     79  66  64 S7        29.97F

$$

GAZ063-065-086>088-099>101-113>116-118-119-134-136>141-150-012000-
...GEORGIA...

CITY           SKY/WX    TMP DP  RH WIND       PRES   REMARKS
SAVANNAH ARPT  MOSUNNY   86  61  42 SE6       29.97F
HUNTER AAF     PTSUNNY   83  66  55 E8        29.96S
FORT STEWART   PTSUNNY   83  64  52 E3        29.95F
STATESBORO     NOT AVBL
SYLVANIA       CLEAR     86  64  47 CALM      29.98F
CLAXTON        MOCLDY    86  63  45 E5        29.97F
THOMSON        SUNNY     84  69  60 CALM      30.02F
AUGUSTA-BUSH   PTSUNNY   83  61  47 S3        29.96F
AUGUSTA-DANIEL MOSUNNY   85  58  39 SE3       29.98F
SWAINSBORO     FAIR      86  64  48 SE7       29.98F
VIDALIA        PTSUNNY   81  66  61 N3        29.97F
ALMA           CLOUDY    82  64  54 CALM      29.97F
WAYCROSS       CLOUDY    84  69  60 SE3       29.97S
JESUP          CLOUDY    86  68  54 CALM      29.97S
BRUNSWICK      CLOUDY    82  64  54 E8        29.97F
SAINT SIMONS   CLOUDY    79  68  69 NE10      29.97F

$$

SCZ027-028-034-036>038-045-046-048>050-GAZ119-141-012000-
...LAKE AND SUPPLEMENTAL COASTAL OBSERVATIONS...

STATION/POSITION TIME  TEMP    WIND        PRES    WAVE   SWELL
                       AIR SEA DIR/SP/G            HT/PER HT/PER/DIR
                 (UTC) (F)     (DEG/KT/KT) (MB)    (FT/S) (FT/S/D)
UPR LAKE MARION  NOT AVBL
WINYAH BAY       1800   75      80/  7     1015.0S
LAKE MURRAY      1800   80     200/  6/  6 1014.2F
ACE BASIN NERRS  1800   83      60/  2     1016.0S
FORT PULASKI     1900   77      90/  8/  9 1015.4S
SAPELO ISLAND    NOT AVBL

$$

ANZ835-935-AMZ111-154-330-350-352-354-374-450-454-472-012000-
...C-MAN AND BUOY OBSERVATIONS...

STATION/POSITION TIME  TEMP    WIND        PRES    WAVE   SWELL
                       AIR SEA DIR/SP/G            HT/PER HT/PER/DIR
                 (UTC) (F)     (DEG/KT/KT) (MB)    (FT/S) (FT/S/D)
FOLLY BEACH CMAN 1800   76      90/  5/  6 1015.6F
BUOY 41004       1900   77 81   40/  8/ 12 1014.4F   3/ 6   2/ 6
BUOY 41008       1900   77 79   40/ 10/ 12 1014.7F   2/ 6   2/ 80/ 6
5E ST. MARYS GA  1800      79                N/A     3/ 7
FRYING PAN BUOY  NOT AVBL
BUOY 41025       1800   72     350/ 16/ 19 1014.0    4/ 7   3/ 70/ 7
CAPE LOOKOUT NC  1800   74      50/ 11/ 12 1014.7F
BUOY 41002       1824   78 81   10/ 12/ 14 1012.4F   4/ 6   3/ 20/ 6
BUOY 41010       1900   80 84   20/  4/  6 1013.3F   3/ 8   3/ 20/ 8
BUOY 41012       NOT AVBL
ST AUGUSTINE FL  1900   79      30/ 14/ 15 1014.2F
CAPERS NEARSHORE 1800   76      90/  8/ 10   N/A
FRIPP NEARSHORE  NOT AVBL


$$



USA.gov is the U.S. government's official web portal to all federal, state and local government web resources and services.